Time,TemperatureF,DewpointF,PressureIn,WindDirection,WindDirectionDegrees,WindSpeedMPH,WindSpeedGustMPH,Humidity,HourlyPrecipIn,Conditions,Clouds,dailyrainin,SolarRadiationWatts/m^2,SoftwareType,DateUTC
2013-02-20 08:00:00,26.0,25.0,-100.00,South,170,0.0,4.0,96,-99.99,,,-99.99,10.100000,,2013-02-20 15:00:00,
2013-02-20 09:00:00,29.0,26.0,-100.00,ENE,76,1.0,7.0,91,-99.99,,,-99.99,17.100000,,2013-02-20 16:00:00,
2013-02-20 09:52:00,29.0,26.0,-100.00,ENE,76,1.0,7.0,91,-99.99,,,-99.99,17.100000,,2013-02-20 16:52:00,
2013-02-20 10:00:00,33.0,-99.9,-100.00,North,-999,-999.0,-999.0,-999,-99.99,,,-99.99,,,2013-02-20 17:00:00,
2013-02-20 10:52:00,33.0,-99.9,-100.00,North,-999,-999.0,-999.0,-999,-99.99,,,-99.99,,,2013-02-20 17:52:00,
2013-02-20 13:00:00,31.0,25.0,-100.00,NE,42,1.0,8.0,78,-99.99,,,-99.99,59.500000,,2013-02-20 20:00:00,
2013-02-20 13:52:00,31.0,25.0,-100.00,NE,42,1.0,8.0,78,-99.99,,,-99.99,59.500000,,2013-02-20 20:52:00,
2013-02-20 14:00:00,36.0,24.0,-100.00,NW,307,2.0,8.0,62,-99.99,,,0.00,357.799988,,2013-02-20 21:00:00,
2013-02-20 14:52:00,36.0,24.0,-100.00,NW,307,2.0,8.0,62,-99.99,,,0.00,357.799988,,2013-02-20 21:52:00,
2013-02-20 15:00:00,32.0,19.0,-100.00,West,269,2.0,10.0,58,-99.99,,,0.00,315.000000,,2013-02-20 22:00:00,
2013-02-20 15:52:00,32.0,19.0,-100.00,West,269,2.0,10.0,58,-99.99,,,0.00,315.000000,,2013-02-20 22:52:00,
2013-02-20 16:00:00,29.0,-99.9,-100.00,North,-999,-999.0,-999.0,-999,-99.99,,,0.00,,,2013-02-20 23:00:00,
2013-02-20 16:53:00,29.0,-99.9,-100.00,North,-999,-999.0,-999.0,-999,-99.99,,,0.00,,,2013-02-20 23:53:00,
2013-02-20 17:00:00,26.0,24.0,-100.00,WNW,289,1.0,3.0,95,-99.99,,,0.01,6.700000,,2013-02-21 00:00:00,
2013-02-20 17:52:00,26.0,24.0,-100.00,WNW,289,1.0,3.0,95,-99.99,,,0.01,6.700000,,2013-02-21 00:52:00,
2013-02-20 19:00:00,25.0,24.0,-100.00,SW,231,0.0,1.0,96,-99.99,,,0.01,0.000000,,2013-02-21 02:00:00,
2013-02-20 20:00:00,24.0,23.0,-100.00,WSW,240,0.0,0.0,96,-99.99,,,0.02,0.000000,,2013-02-21 03:00:00,
2013-02-20 20:52:00,24.0,23.0,-100.00,WSW,240,0.0,0.0,96,-99.99,,,0.02,0.000000,,2013-02-21 03:52:00,
2013-02-20 22:00:00,22.0,21.0,-100.00,SW,226,0.0,0.0,95,-99.99,,,0.02,0.000000,,2013-02-21 05:00:00,
2013-02-20 23:00:00,22.0,21.0,-100.00,South,184,0.0,0.0,95,-99.99,,,-99.99,0.000000,,2013-02-21 06:00:00,
2013-02-20 23:51:00,22.0,21.0,-100.00,South,184,0.0,0.0,95,-99.99,,,-99.99,0.000000,,2013-02-21 06:51:00,